Simultaneous Nadir Overpasses (SNOs) Predictions

Prediction of SNOs between AQUA and NOAA-19 Satellite Orbit:

Table of predicted SNOs for the next 14.0 days since TLE Epoch: 3/3/2014
Index Date (AQUA) Time (AQUA) Lat,Lon (AQUA) SZA (AQUA ) Date (NOAA-19) Time (NOAA-19) Lat,Lon (NOAA-19) SZA (NOAA-19 ) Distance(km) Time Diff (sec)
1 03/03/2014 08:24:50 -73.32,-130.86 99.83 03/03/2014 08:24:40 -73.33,-130.93 99.81 2.27 10
2 03/03/2014 09:08:07 52.20, 56.32 59.49 03/03/2014 09:09:19 52.42, 57.67 59.93 95.00 72
3 03/05/2014 13:09:06 -73.53, 157.65 100.45 03/05/2014 13:08:45 -73.54, 157.60 100.44 1.55 21
4 03/05/2014 13:57:56 71.53, -30.96 77.43 03/05/2014 13:59:06 71.54, -30.96 77.43 0.21 70
5 03/07/2014 17:53:15 -73.43, 86.82 101.42 03/07/2014 17:52:43 -73.42, 86.90 101.42 2.78 32
6 03/07/2014 18:42:11 71.76,-102.37 76.80 03/07/2014 18:43:10 71.75,-102.34 76.79 1.54 59
7 03/09/2014 22:37:34 -73.90, 14.77 101.77 03/09/2014 22:36:53 -73.90, 14.75 101.76 0.48 41
8 03/09/2014 23:26:27 72.09,-173.98 76.29 03/09/2014 23:27:16 72.08,-173.95 76.28 1.34 49
9 03/12/2014 03:21:47 -74.11, -56.74 102.42 03/12/2014 03:20:57 -74.11, -56.74 102.41 0.25 50
10 03/12/2014 04:10:44 72.52, 114.20 75.87 03/12/2014 04:11:24 72.52, 114.18 75.88 0.71 40
11 03/14/2014 08:06:01 -74.41,-128.49 102.95 03/14/2014 08:05:03 -74.42,-128.55 102.93 1.93 58
12 03/14/2014 08:54:54 72.63, 42.96 75.12 03/14/2014 08:55:25 72.62, 42.99 75.11 1.15 31
13 03/16/2014 12:50:08 -74.41, 160.49 103.83 03/16/2014 12:49:02 -74.41, 160.49 103.81 0.17 66




NCC Satellite Simultaneous Nadir Overpasses (SNOs) Prediction Service
